N0ERG Weather Reports


Display with metric or nautical units.
time (UTC)temp
F
wind
direction
speed
MPH
gust
MPH
rain 1hr
in
rain 24hr
in
rain mn
in
humidity
%
barometer
mb
20210421182103 34 270 3.0 7.0 0.00 0.00 0.00 67 1019.9
20210421181107 34 257 3.0 7.0 0.00 0.00 0.00 66 1020.0
20210421180156 34 292 2.0 8.0 0.00 0.01 0.00 66 1020.0
20210421175140 34 328 3.0 6.0 0.00 0.01 0.00 65 1020.1
20210421174124 34 295 4.0 9.0 0.00 0.02 0.00 66 1020.3
20210421173106 34 295 6.0 10.0 0.00 0.04 0.00 65 1020.3
20210421164447 34 279 3.0 7.0 0.00 0.14 0.00 67 1020.8
20210421153251 32 292 2.0 3.0 0.00 0.19 0.00 70 1021.3
20210421152242 31 145 1.0 3.0 0.00 0.20 0.00 73 1021.5
20210421143329 30 266 1.0 2.0 0.00 0.20 0.00 76 1021.9
20210421141741 29 98 1.0 3.0 0.00 0.22 0.00 80 1022.1
20210421134137 28 101 1.0 3.0 0.00 0.23 0.00 80 1022.2
20210421133214 28 79 1.0 3.0 0.00 0.23 0.00 80 1022.3
20210421132129 28 96 1.0 3.0 0.00 0.23 0.00 80 1022.5
20210421124451 28 82 1.0 5.0 0.00 0.23 0.23 80 1022.3
20210421123649 28 0 0.0 3.0 0.00 0.23 0.23 79 1022.4
20210421122744 28 101 0.0 1.0 0.00 0.23 0.23 78 1022.5
20210421121714 28 101 1.0 2.0 0.00 0.23 0.23 78 1022.5
20210421120505 28 131 1.0 3.0 0.00 0.23 0.23 77 1022.5
20210421114152 28 141 1.0 3.0 0.00 0.23 0.23 77 1022.6
20210421113127 28 140 0.0 3.0 0.00 0.23 0.23 77 1022.9
20210421112127 28 160 1.0 3.0 0.00 0.23 0.23 77 1023.1
20210421110854 29 134 1.0 3.0 0.00 0.23 0.23 77 1023.5
20210421104151 29 111 1.0 3.0 0.00 0.23 0.23 77 1023.5
20210421103117 29 144 1.0 3.0 0.00 0.23 0.23 76 1023.6
20210421102106 29 144 1.0 2.0 0.00 0.23 0.23 76 1023.4
20210421101136 29 148 1.0 3.0 0.00 0.23 0.23 76 1023.5
20210421100625 29 177 1.0 2.0 0.00 0.23 0.23 75 1023.9
20210421094108 29 180 1.0 3.0 0.00 0.23 0.23 74 1024.0
20210421093108 29 143 0.0 2.0 0.00 0.23 0.23 75 1024.1
20210421092115 29 143 1.0 2.0 0.00 0.23 0.23 74 1024.1
20210421091138 29 139 0.0 2.0 0.00 0.23 0.23 74 1024.4
20210421090702 29 135 1.0 3.0 0.00 0.23 0.23 72 1024.6
20210421084114 29 147 1.0 3.0 0.00 0.23 0.23 72 1024.7
20210421083115 29 146 1.0 3.0 0.00 0.23 0.23 71 1024.8
20210421082107 29 146 2.0 3.0 0.00 0.23 0.23 71 1024.7
20210421081230 29 157 1.0 3.0 0.00 0.23 0.23 71 1024.8
20210421080844 29 148 1.0 2.0 0.00 0.23 0.23 71 1025.0
20210421074109 29 143 1.0 3.0 0.00 0.23 0.23 71 1025.1
20210421073118 30 150 0.0 3.0 0.00 0.23 0.23 70 1025.1
20210421072127 30 151 1.0 3.0 0.00 0.23 0.23 69 1025.3
20210421071133 30 153 1.0 3.0 0.00 0.23 0.23 68 1025.4
20210421070602 30 156 1.0 3.0 0.00 0.23 0.23 66 1025.6
20210421064106 30 143 1.0 5.0 0.00 0.23 0.23 65 1025.6
20210421063120 30 161 1.0 3.0 0.00 0.23 0.23 63 1025.7
20210421062428 31 134 1.0 5.0 0.00 0.23 0.23 63 1025.9
20210421061153 31 122 1.0 3.0 0.00 0.23 0.23 61 1026.0
20210421055417 31 95 1.0 2.0 0.00 0.23 0.23 59 1026.1
20210421054106 31 95 0.0 3.0 0.00 0.23 0.23 57 1026.2
20210421053146 31 96 1.0 3.0 0.00 0.23 0.23 58 1026.2
20210421052521 31 99 1.0 2.0 0.00 0.23 0.23 57 1026.2
20210421051106 31 78 1.0 2.0 0.00 0.23 0.23 58 1026.3
20210421050112 31 113 1.0 2.0 0.00 0.23 0.23 57 1026.2
20210421045322 31 114 1.0 2.0 0.00 0.23 0.23 57 1026.4
20210421044106 31 114 0.0 1.0 0.00 0.23 0.23 58 1026.5
20210421043104 31 115 0.0 1.0 0.00 0.23 0.23 56 1026.4
20210421042251 31 114 0.0 2.0 0.00 0.23 0.23 55 1026.4
20210421041106 31 114 1.0 2.0 0.00 0.23 0.23 56 1026.4
20210421040107 31 113 1.0 2.0 0.00 0.23 0.23 56 1026.3
20210421035205 31 113 1.0 2.0 0.00 0.23 0.23 55 1026.3
20210421034120 31 105 1.0 3.0 0.00 0.23 0.23 56 1026.2
20210421033106 30 103 1.0 3.0 0.00 0.23 0.23 56 1026.1
20210421032230 30 125 1.0 3.0 0.00 0.23 0.23 57 1026.1
20210421031105 30 126 1.0 2.0 0.00 0.23 0.23 58 1025.9
20210421030135 30 118 1.0 3.0 0.00 0.23 0.23 58 1025.7
20210421025402 30 116 2.0 3.0 0.00 0.23 0.23 57 1025.6
20210421024107 30 103 2.0 3.0 0.00 0.23 0.23 57 1025.4
20210421023105 30 104 3.0 7.0 0.00 0.23 0.23 56 1025.2
20210421022309 30 105 3.0 5.0 0.00 0.23 0.23 55 1025.2
20210421021111 30 102 3.0 7.0 0.00 0.23 0.23 55 1025.1
20210421020108 31 110 3.0 6.0 0.00 0.23 0.23 55 1025.0
20210421015406 31 51 2.0 6.0 0.00 0.23 0.23 54 1024.9
20210421014104 31 111 4.0 8.0 0.00 0.23 0.23 53 1024.8
20210421013108 31 125 3.0 7.0 0.00 0.23 0.23 53 1024.7
20210421012229 32 107 3.0 7.0 0.00 0.23 0.23 53 1024.5
20210421011104 32 110 2.0 8.0 0.00 0.23 0.23 53 1024.5
20210421010106 32 112 3.0 7.0 0.00 0.23 0.23 52 1024.4
20210421005543 33 114 6.0 9.0 0.00 0.23 0.23 50 1024.4
20210421004105 33 122 3.0 9.0 0.00 0.23 0.23 50 1024.4
20210421003107 34 96 3.0 8.0 0.00 0.23 0.23 49 1024.3
20210421002339 34 112 3.0 12.0 0.00 0.23 0.23 47 1024.3
20210421001107 34 127 3.0 9.0 0.00 0.23 0.23 49 1024.4
20210421000110 35 118 6.0 12.0 0.00 0.23 0.23 47 1024.3
20210420235423 35 120 2.0 9.0 0.00 0.23 0.23 47 1024.2
20210420234115 35 119 6.0 12.0 0.00 0.23 0.23 45 1024.1
20210420233110 35 130 6.0 12.0 0.00 0.23 0.23 43 1024.1
20210420232515 36 142 2.0 8.0 0.00 0.23 0.23 44 1024.0
20210420231105 36 139 2.0 7.0 0.00 0.23 0.23 44 1024.0
20210420230104 35 122 5.0 9.0 0.00 0.23 0.23 44 1023.8
20210420225317 36 114 5.0 14.0 0.00 0.23 0.23 43 1023.8
20210420224104 36 128 2.0 10.0 0.00 0.23 0.23 45 1023.7
20210420223123 35 102 6.0 12.0 0.00 0.23 0.23 44 1023.8
20210420222158 35 114 4.0 12.0 0.00 0.23 0.23 43 1023.9
20210420221106 35 66 3.0 9.0 0.00 0.23 0.23 45 1024.1
20210420220106 34 110 2.0 10.0 0.00 0.23 0.23 42 1024.2
20210420215251 34 71 3.0 12.0 0.00 0.23 0.23 44 1024.3
20210420214109 35 76 5.0 10.0 0.00 0.23 0.23 45 1024.4
20210420213118 34 97 3.0 12.0 0.00 0.23 0.23 48 1024.5
20210420212442 34 99 5.0 12.0 0.00 0.24 0.23 45 1024.6
20210420211105 34 116 3.0 13.0 0.00 0.24 0.23 50 1024.8
20210420210106 34 112 6.0 12.0 0.00 0.24 0.23 47 1024.9
20210420205207 34 120 5.0 12.0 0.00 0.24 0.23 49 1024.9
20210420204107 34 65 3.0 12.0 0.00 0.24 0.23 48 1025.1
20210420203105 34 186 2.0 9.0 0.00 0.24 0.23 45 1025.1
20210420202219 35 133 3.0 8.0 0.00 0.24 0.23 46 1025.2
20210420201104 35 140 5.0 9.0 0.00 0.24 0.23 43 1025.1
20210420200107 35 311 1.0 9.0 0.00 0.24 0.23 43 1025.2
20210420195141 34 67 3.0 9.0 0.00 0.24 0.23 43 1025.2
20210420194107 34 70 3.0 12.0 0.00 0.24 0.23 41 1025.3
20210420193106 34 351 3.0 8.0 0.00 0.24 0.23 42 1025.3
20210420192242 33 86 4.0 9.0 0.00 0.24 0.23 42 1025.4
20210420191105 33 88 2.0 10.0 0.00 0.24 0.23 45 1025.4
20210420190108 34 89 3.0 7.0 0.01 0.24 0.23 42 1025.5
20210420185145 34 110 2.0 7.0 0.01 0.24 0.23 39 1025.7
20210420184104 34 128 3.0 7.0 0.02 0.24 0.23 41 1025.7
20210420183104 34 142 3.0 7.0 0.04 0.24 0.23 39 1025.7